sat.trackr.live / text

‹ back to catalog

SPOT 7

NORAD 40053 · 2014-034A

PAYLOAD ACTIVE UNKNOWN

§ Identity

Operator
Country
AZER
Launch date
2014-06-30
Launch site
SRILR
Launch vehicle
Mass (kg)
RCS (m²)
3.68

Purposes: earth_obs

External: N2YO · Heavens-Above · Gunter

§ Orbital elements

Epoch: 2026-05-25T04:03:29.730240Z

Period
98.57 min
Inclination
98.0636°
Eccentricity
0.0001184
Mean motion
14.60934281 rev/d
Perigee alt
689.3 km
Apogee alt
691.0 km
Semi-major
7,068.3 km
B*
6.7065e-5
RAAN
208.2526°
Arg perigee
81.8907°
Mean anomaly
278.2428°
Rev number
63,377

§ Raw data

SPOT 71 40053U 14034A   26145.16909410  .00000283  00000+0  67065-4 0  99922 40053  98.0636 208.2526 0001184  81.8907 278.2428 14.60934281633775

JSON: /api/v1/satellites/40053 · /tle

For live sub-satellite position, see the globe view (requires WebGL).

§ Visibility from observer

Set your observer location to see the next 7 days of passes ≥ 10°. The values pass through the URL so the page stays shareable.

No JS? Fill the form by hand. The geolocation button needs JavaScript.